• Em Portugal
  • Lista de países
  • Para 7 dias
  • Temperatura da água
  • Mapas de satélite
  • Mapa do tempo
  • Widgets de tempo
  • user-avatar
    Iniciar Sessão

    Previsão horária em Podwojponie

    Hoje, 18 Outubro, Quinta-feira

    Tempo Temperatura Precipitação Vento Pressão Humidade
    00:00 +10°C° 0 mm 2 m/s 749 mmHg 68%
    01:00 +10°C° 0 mm 2 m/s 749 mmHg 71%
    02:00 +9°C° 0 mm 2 m/s 749 mmHg 75%
    03:00 +9°C° 0 mm 2 m/s 749 mmHg 78%
    04:00 +9°C° 0 mm 2 m/s 748 mmHg 80%
    05:00 +8°C° 0 mm 2 m/s 748 mmHg 83%
    06:00 +8°C° 0 mm 2 m/s 748 mmHg 84%
    07:00 +9°C° 0 mm 2 m/s 748 mmHg 85%
    08:00 +9°C° 0 mm 2 m/s 748 mmHg 84%
    09:00 +12°C° 0 mm 2 m/s 748 mmHg 77%
    10:00 +14°C° 0 mm 2 m/s 747 mmHg 70%
    11:00 +16°C° 0 mm 2 m/s 747 mmHg 62%
    12:00 +17°C° 0 mm 2 m/s 747 mmHg 58%
    13:00 +18°C° 0 mm 2 m/s 747 mmHg 54%
    14:00 +19°C° 0 mm 2 m/s 747 mmHg 50%
    15:00 +19°C° 0 mm 1 m/s 746 mmHg 54%
    16:00 +16°C° 0 mm 1 m/s 746 mmHg 58%
    17:00 +15°C° 0 mm 1 m/s 746 mmHg 63%
    18:00 +14°C° 0 mm 1 m/s 746 mmHg 65%
    19:00 +13°C° 0 mm 1 m/s 746 mmHg 68%
    20:00 +12°C° 0 mm 1 m/s 746 mmHg 71%
    21:00 +12°C° 0 mm 1 m/s 746 mmHg 72%
    22:00 +12°C° 0 mm 1 m/s 746 mmHg 73%
    23:00 +11°C° 0 mm 1 m/s 746 mmHg 74%

    Amanhã, 19 Outubro, Sexta-feira

    Tempo Temperatura Precipitação Vento Pressão Humidade
    00:00 +11°C° 0 mm 1 m/s 746 mmHg 76%
    01:00 +11°C° 0 mm 1 m/s 746 mmHg 78%
    02:00 +10°C° 0 mm 1 m/s 746 mmHg 79%
    03:00 +10°C° 0 mm 1 m/s 746 mmHg 82%
    04:00 +10°C° 0 mm 1 m/s 746 mmHg 84%
    05:00 +9°C° 0 mm 1 m/s 746 mmHg 86%
    06:00 +8°C° 0 mm 2 m/s 747 mmHg 87%
    07:00 +8°C° 0 mm 2 m/s 747 mmHg 89%
    08:00 +8°C° 0 mm 2 m/s 747 mmHg 90%
    09:00 +9°C° 0 mm 2 m/s 748 mmHg 86%
    10:00 +10°C° 0 mm 2 m/s 748 mmHg 81%
    11:00 +12°C° 0 mm 3 m/s 748 mmHg 77%
    12:00 +12°C° 0 mm 3 m/s 748 mmHg 76%
    13:00 +12°C° 0 mm 3 m/s 748 mmHg 76%
    14:00 +13°C° 0 mm 2 m/s 748 mmHg 75%
    15:00 +12°C° 0 mm 2 m/s 748 mmHg 77%
    16:00 +12°C° 0 mm 2 m/s 748 mmHg 78%
    17:00 +10°C° 0 mm 2 m/s 749 mmHg 80%
    18:00 +9°C° 0 mm 2 m/s 749 mmHg 82%
    19:00 +9°C° 0 mm 1 m/s 749 mmHg 83%
    20:00 +9°C° 0 mm 1 m/s 750 mmHg 85%
    21:00 +8°C° 0 mm 1 m/s 750 mmHg 87%
    22:00 +7°C° 0 mm 1 m/s 750 mmHg 89%
    23:00 +7°C° 0 mm 1 m/s 750 mmHg 90%

    Depois de amanhã, 20 Outubro, Sábado

    Tempo Temperatura Precipitação Vento Pressão Humidade
    00:00 +6°C° 0 mm 1 m/s 750 mmHg 91%
    01:00 +6°C° 0 mm 1 m/s 750 mmHg 91%
    02:00 +6°C° 0 mm 1 m/s 750 mmHg 92%
    03:00 +6°C° 0 mm 1 m/s 750 mmHg 92%
    04:00 +5°C° 0 mm 1 m/s 750 mmHg 92%
    05:00 +5°C° 0 mm 1 m/s 750 mmHg 93%
    06:00 +5°C° 0 mm 1 m/s 750 mmHg 92%
    07:00 +6°C° 0 mm 1 m/s 750 mmHg 92%
    08:00 +6°C° 0 mm 1 m/s 750 mmHg 91%
    09:00 +6°C° 0 mm 2 m/s 750 mmHg 84%
    10:00 +8°C° 0 mm 2 m/s 751 mmHg 77%
    11:00 +9°C° 0 mm 3 m/s 751 mmHg 70%
    12:00 +10°C° 0 mm 3 m/s 750 mmHg 68%
    13:00 +11°C° 0 mm 3 m/s 750 mmHg 66%
    14:00 +11°C° 0 mm 4 m/s 750 mmHg 64%
    15:00 +11°C° 0 mm 4 m/s 750 mmHg 68%
    16:00 +10°C° 0 mm 4 m/s 749 mmHg 73%
    17:00 +8°C° 0 mm 4 m/s 749 mmHg 77%
    18:00 +8°C° 0.1 mm 4 m/s 749 mmHg 79%
    19:00 +7°C° 0.1 mm 4 m/s 749 mmHg 80%
    20:00 +7°C° 0.1 mm 4 m/s 749 mmHg 82%
    21:00 +7°C° 0.1 mm 4 m/s 749 mmHg 84%
    22:00 +7°C° 0.1 mm 4 m/s 749 mmHg 86%
    23:00 +6°C° 0.1 mm 4 m/s 749 mmHg 89%

    21 Outubro, Domingo

    Tempo Temperatura Precipitação Vento Pressão Humidade
    00:00 +6°C° 0 mm 4 m/s 749 mmHg 90%
    01:00 +5°C° 0 mm 4 m/s 749 mmHg 92%
    02:00 +5°C° 0 mm 3 m/s 749 mmHg 94%
    03:00 +5°C° 0 mm 3 m/s 749 mmHg 94%
    04:00 +4°C° 0 mm 3 m/s 749 mmHg 94%
    05:00 +4°C° 0 mm 3 m/s 749 mmHg 94%
    06:00 +4°C° 0 mm 3 m/s 749 mmHg 91%
    07:00 +4°C° 0 mm 4 m/s 749 mmHg 88%
    08:00 +5°C° 0 mm 4 m/s 750 mmHg 86%
    09:00 +6°C° 0 mm 4 m/s 750 mmHg 80%
    10:00 +7°C° 0 mm 4 m/s 750 mmHg 75%
    11:00 +8°C° 0 mm 5 m/s 750 mmHg 69%
    12:00 +8°C° 0 mm 4 m/s 750 mmHg 67%
    13:00 +10°C° 0 mm 4 m/s 750 mmHg 64%
    14:00 +10°C° 0 mm 4 m/s 750 mmHg 62%
    15:00 +10°C° 0 mm 3 m/s 750 mmHg 66%
    16:00 +9°C° 0 mm 2 m/s 750 mmHg 70%
    17:00 +9°C° 0 mm 1 m/s 750 mmHg 74%
    18:00 +8°C° 0 mm 1 m/s 750 mmHg 78%
    19:00 +7°C° 0 mm 1 m/s 750 mmHg 81%
    20:00 +5°C° 0 mm 0 m/s 751 mmHg 85%
    21:00 +6°C° 0 mm 1 m/s 751 mmHg 86%
    22:00 +6°C° 0 mm 1 m/s 751 mmHg 87%
    23:00 +6°C° 0 mm 1 m/s 751 mmHg 88%

    22 Outubro, Segunda-feira

    Tempo Temperatura Precipitação Vento Pressão Humidade
    00:00 +5°C° 0 mm 2 m/s 750 mmHg 88%
    01:00 +4°C° 0 mm 2 m/s 750 mmHg 89%
    02:00 +3°C° 0 mm 3 m/s 750 mmHg 90%
    03:00 +3°C° 0 mm 3 m/s 750 mmHg 89%
    04:00 +3°C° 0 mm 3 m/s 749 mmHg 88%
    05:00 +4°C° 0 mm 4 m/s 749 mmHg 87%
    06:00 +4°C° 0 mm 4 m/s 749 mmHg 84%
    07:00 +5°C° 0 mm 4 m/s 749 mmHg 82%
    08:00 +5°C° 0 mm 5 m/s 748 mmHg 80%
    09:00 +6°C° 0.1 mm 5 m/s 748 mmHg 79%
    10:00 +7°C° 0.1 mm 5 m/s 748 mmHg 78%
    11:00 +8°C° 0.1 mm 5 m/s 748 mmHg 78%
    12:00 +8°C° 0.8 mm 5 m/s 747 mmHg 81%
    13:00 +8°C° 0.8 mm 5 m/s 747 mmHg 84%
    14:00 +8°C° 0.8 mm 5 m/s 747 mmHg 88%
    15:00 +7°C° 0.9 mm 5 m/s 747 mmHg 88%
    16:00 +7°C° 0.9 mm 4 m/s 747 mmHg 89%
    17:00 +8°C° 0.9 mm 3 m/s 747 mmHg 89%
    18:00 +7°C° 0.2 mm 3 m/s 747 mmHg 86%
    19:00 +7°C° 0.2 mm 3 m/s 747 mmHg 84%
    20:00 +5°C° 0.2 mm 3 m/s 747 mmHg 81%
    21:00 +5°C° 0 mm 3 m/s 747 mmHg 81%
    22:00 +5°C° 0 mm 2 m/s 747 mmHg 81%
    23:00 +5°C° 0 mm 2 m/s 746 mmHg 80%

    23 Outubro, Terça-feira

    Tempo Temperatura Precipitação Vento Pressão Humidade
    00:00 +4°C° 0 mm 2 m/s 746 mmHg 81%
    01:00 +4°C° 0 mm 2 m/s 746 mmHg 82%
    02:00 +4°C° 0 mm 2 m/s 745 mmHg 83%
    03:00 +4°C° 0 mm 2 m/s 745 mmHg 85%
    04:00 +4°C° 0 mm 2 m/s 745 mmHg 86%
    05:00 +4°C° 0 mm 2 m/s 744 mmHg 88%
    06:00 +4°C° 0 mm 2 m/s 744 mmHg 88%
    07:00 +4°C° 0 mm 2 m/s 743 mmHg 89%
    08:00 +4°C° 0 mm 2 m/s 742 mmHg 90%
    09:00 +4°C° 0 mm 3 m/s 742 mmHg 85%
    10:00 +5°C° 0 mm 3 m/s 742 mmHg 80%
    11:00 +8°C° 0 mm 3 m/s 742 mmHg 75%
    12:00 +8°C° 0.2 mm 3 m/s 741 mmHg 74%
    13:00 +8°C° 0.2 mm 3 m/s 741 mmHg 72%
    14:00 +8°C° 0.2 mm 3 m/s 740 mmHg 70%
    15:00 +8°C° 0.1 mm 2 m/s 740 mmHg 74%
    16:00 +7°C° 0.1 mm 2 m/s 739 mmHg 77%
    17:00 +8°C° 0.1 mm 1 m/s 739 mmHg 80%
    18:00 +7°C° 0.1 mm 1 m/s 739 mmHg 83%
    19:00 +7°C° 0.1 mm 1 m/s 739 mmHg 85%
    20:00 +6°C° 0.1 mm 1 m/s 739 mmHg 88%
    21:00 +6°C° 0 mm 1 m/s 739 mmHg 89%
    22:00 +5°C° 0 mm 1 m/s 739 mmHg 90%
    23:00 +5°C° 0 mm 1 m/s 739 mmHg 91%
    Mostrar mais